Weather History for West Palm Beach, FL

Change the Weather History Date:

Monday, December 5, 2011

  Actual Average Record
Temperature  
Mean Temperature 76 °F 70 °F  
Max Temperature 79 °F 78 °F 90 °F (1941)
Min Temperature 73 °F 62 °F 41 °F (1968)
Degree Days  
Heating Degree Days 0 1  
Month to date heating degree days 2 5  
Since 1 July heating degree days 3 17  
Cooling Degree Days 11 6  
Month to date cooling degree days 39 30  
Year to date cooling degree days 4609 3896  
Growing Degree Days 26 (Base 50)    
Moisture  
Dew Point 62 °F    
Average Humidity 61    
Maximum Humidity 73    
Minimum Humidity 48    
Precipitation  
Precipitation 0.00 in 0.11 in 2.65 in (1994)
Month to date precipitation 0.02 0.56  
Year to date precipitation 47.01 59.51  
Snow  
Snow 0.00 in - - ()
Month to date snowfall 0.0  
Since 1 July snowfall 0.0  
Snow Depth 0.00 in    
Sea Level Pressure  
Sea Level Pressure 30.10 in    
Wind  
Wind Speed 14 mph (East)    
Max Wind Speed 24 mph    
Max Gust Speed 31 mph    
Visibility 10 miles    
Events      
T = Trace of Precipitation, MM = Missing Value Source: NWS Daily Summary

Daily Weather History Graph

Daily Weather History Graph

Search for Another Location

Airport:

Trip Planner

Search our weather history database for the weather conditions in past years. The results will help you decide how hot, cold, wet, or windy it might be!

Date:

Astronomy

Dec. 05, 2011 Rise Set
Actual Time 6:54 AM EST 5:27 PM EST
Civil Twilight 6:29 AM EST 5:52 PM EST
Nautical Twilight 6:00 AM EST 6:21 PM EST
Astronomical Twilight 5:32 AM EST 6:49 PM EST
Moon 2:08 PM EST (12/5) 2:32 AM EST (12/5)
Length of Visible Light 11h 23m
Length of Day
10h 32m
Waxing Gibbous, 79% of the Moon is Illuminated
Dec 5
Waxing Gibbous
Dec 10
Full
Dec 17
Last Quarter
Dec 24
New
Jan 1
First Quarter

Hourly Weather History & Observations

Time (EST) Temp. Dew Point Humidity Pressure Visibility Wind Dir Wind Speed Gust Speed Precip Events Conditions
12:53 AM 73.9 °F 63.0 °F 68% 30.12 in 10.0 mi East 19.6 mph 27.6 mph N/A   Scattered Clouds
1:53 AM 73.9 °F 63.0 °F 68% 30.11 in 10.0 mi East 16.1 mph 24.2 mph N/A   Mostly Cloudy
2:53 AM 73.9 °F 62.1 °F 66% 30.11 in 10.0 mi East 18.4 mph - N/A   Mostly Cloudy
3:53 AM 73.0 °F 60.1 °F 64% 30.10 in 10.0 mi East 15.0 mph - N/A   Scattered Clouds
4:53 AM 73.0 °F 62.1 °F 68% 30.09 in 10.0 mi East 15.0 mph - N/A   Scattered Clouds
5:53 AM 73.0 °F 64.0 °F 73% 30.09 in 10.0 mi East 17.3 mph - N/A   Scattered Clouds
6:53 AM 73.0 °F 64.0 °F 73% 30.11 in 10.0 mi East 15.0 mph 24.2 mph N/A   Scattered Clouds
7:53 AM 73.9 °F 63.0 °F 68% 30.13 in 10.0 mi East 15.0 mph - N/A   Mostly Cloudy
8:53 AM 75.9 °F 62.1 °F 62% 30.14 in 10.0 mi East 17.3 mph - N/A   Mostly Cloudy
9:53 AM 77.0 °F 62.1 °F 60% 30.15 in 10.0 mi East 16.1 mph - N/A   Scattered Clouds
10:53 AM 78.1 °F 60.1 °F 54% 30.14 in 10.0 mi East 16.1 mph 21.9 mph N/A   Scattered Clouds
11:53 AM 79.0 °F 59.0 °F 50% 30.13 in 10.0 mi East 12.7 mph - N/A   Partly Cloudy
12:53 PM 79.0 °F 59.0 °F 50% 30.09 in 10.0 mi East 12.7 mph 20.7 mph N/A   Partly Cloudy
1:53 PM 79.0 °F 57.0 °F 47% 30.06 in 10.0 mi East 12.7 mph - N/A   Partly Cloudy
2:53 PM 78.1 °F 60.1 °F 54% 30.06 in 10.0 mi East 11.5 mph 17.3 mph N/A   Scattered Clouds
3:53 PM 78.1 °F 63.0 °F 60% 30.07 in 10.0 mi East 6.9 mph - N/A   Scattered Clouds
4:53 PM 75.9 °F 64.0 °F 67% 30.08 in 10.0 mi East 9.2 mph - N/A   Scattered Clouds
5:53 PM 75.0 °F 64.0 °F 69% 30.08 in 10.0 mi East 11.5 mph - N/A   Mostly Cloudy
6:53 PM 75.0 °F 63.0 °F 66% 30.09 in 10.0 mi East 11.5 mph - N/A   Scattered Clouds
7:53 PM 75.0 °F 62.1 °F 64% 30.10 in 10.0 mi East 12.7 mph - N/A   Mostly Cloudy
8:53 PM 75.0 °F 63.0 °F 66% 30.10 in 10.0 mi ENE 12.7 mph - N/A   Mostly Cloudy
9:53 PM 75.0 °F 63.0 °F 66% 30.11 in 10.0 mi East 11.5 mph - N/A   Mostly Cloudy
10:53 PM 73.9 °F 63.0 °F 68% 30.11 in 10.0 mi ENE 10.4 mph - N/A   Mostly Cloudy
11:53 PM 73.9 °F 62.1 °F 66% 30.09 in 10.0 mi East 11.5 mph - N/A   Mostly Cloudy